GW4081 Weather Reports


Display with metric or nautical units.
time (UTC)temp
F
wind
direction
speed
MPH
gust
MPH
rain 1hr
in
rain 24hr
in
rain mn
in
humidity
%
barometer
mb
20260902001603 97 152 7.0 14.0 0.00 0.00 0.00 36 1013.5
20260902000103 98 152 6.0 10.0 0.00 0.00 0.00 35 1013.5
20260901235603 98 139 6.0 10.0 0.00 0.00 0.00 35 1013.5
20260901235104 98 169 6.0 12.0 0.00 0.00 0.00 35 1013.6
20260901233603 99 180 7.0 14.0 0.00 0.00 0.00 35 1013.6
20260901233103 99 172 8.0 15.0 0.00 0.00 0.00 34 1013.6
20260901232603 99 184 10.0 15.0 0.00 0.00 0.00 34 1013.7
20260901232103 99 173 9.0 15.0 0.00 0.00 0.00 35 1013.7
20260901230604 99 163 9.0 13.0 0.00 0.00 0.00 34 1013.8
20260901230103 99 181 9.0 13.0 0.00 0.00 0.00 35 1013.8
20260901225604 99 168 9.0 13.0 0.00 0.00 0.00 33 1013.8
20260901225103 100 163 6.0 13.0 0.00 0.00 0.00 33 1013.8
20260901224603 100 187 7.0 14.0 0.00 0.00 0.00 33 1013.8
20260901224103 100 167 10.0 14.0 0.00 0.00 0.00 33 1013.8
20260901223604 100 177 10.0 14.0 0.00 0.00 0.00 33 1013.7
20260901223103 99 155 7.0 14.0 0.00 0.00 0.00 33 1013.7
20260901222603 99 174 9.0 13.0 0.00 0.00 0.00 33 1013.8
20260901222104 100 175 9.0 14.0 0.00 0.00 0.00 32 1013.8
20260901221103 100 152 9.0 14.0 0.00 0.00 0.00 32 1013.7
20260901220103 100 193 9.0 12.0 0.00 0.00 0.00 32 1013.8
20260901215605 99 165 5.0 12.0 0.00 0.00 0.00 33 1013.9
20260901215103 99 168 6.0 9.0 0.00 0.00 0.00 33 1013.9
20260901214603 98 173 5.0 13.0 0.00 0.00 0.00 34 1014.0
20260901214103 99 182 7.0 13.0 0.00 0.00 0.00 33 1014.0
20260901213603 100 134 11.0 13.0 0.00 0.00 0.00 33 1014.1
20260901213103 99 195 7.0 12.0 0.00 0.00 0.00 34 1014.1
20260901212603 98 178 7.0 12.0 0.00 0.00 0.00 34 1014.3
20260901211603 98 191 9.0 12.0 0.00 0.00 0.00 34 1014.3
20260901211103 98 172 9.0 12.0 0.00 0.00 0.00 34 1014.4
20260901210603 98 153 2.0 9.0 0.00 0.00 0.00 34 1014.3
20260901210104 98 112 6.0 12.0 0.00 0.00 0.00 34 1014.4
20260901205604 99 137 3.0 15.0 0.00 0.00 0.00 34 1014.5
20260901205103 100 144 9.0 18.0 0.00 0.00 0.00 33 1014.6
20260901204104 101 136 8.0 13.0 0.00 0.00 0.00 33 1014.6
20260901203603 100 126 7.0 12.0 0.00 0.00 0.00 33 1014.7
20260901203103 100 133 6.0 13.0 0.00 0.00 0.00 33 1014.8
20260901202604 99 145 7.0 13.0 0.00 0.00 0.00 33 1015.0
20260901202104 100 154 7.0 22.0 0.00 0.00 0.00 32 1015.0
20260901201604 101 138 9.0 22.0 0.00 0.00 0.00 32 1015.1
20260901201103 101 198 10.0 14.0 0.00 0.00 0.00 33 1015.1
20260901200603 101 147 9.0 22.0 0.00 0.00 0.00 32 1015.2
20260901200104 101 203 9.0 22.0 0.00 0.00 0.00 32 1015.3
20260901195604 101 172 9.0 15.0 0.00 0.00 0.00 32 1015.3
20260901194105 100 174 13.0 20.0 0.00 0.00 0.00 32 1015.5
20260901193605 99 116 6.0 12.0 0.00 0.00 0.00 33 1015.5
20260901193105 98 167 7.0 12.0 0.00 0.00 0.00 34 1015.6
20260901192605 99 155 6.0 15.0 0.00 0.00 0.00 33 1015.6
20260901192105 100 130 9.0 15.0 0.00 0.00 0.00 33 1015.7
20260901191605 99 182 6.0 15.0 0.00 0.00 0.00 34 1015.7
20260901191105 100 136 9.0 15.0 0.00 0.00 0.00 34 1015.8
20260901190105 99 198 6.0 15.0 0.00 0.00 0.00 34 1015.9
20260901185104 100 196 9.0 20.0 0.00 0.00 0.00 34 1016.0
20260901184605 99 165 10.0 20.0 0.00 0.00 0.00 33 1016.1
20260901184105 99 182 8.0 12.0 0.00 0.00 0.00 34 1016.3
20260901183605 99 216 5.0 17.0 0.00 0.00 0.00 34 1016.3
20260901182604 99 170 9.0 16.0 0.00 0.00 0.00 32 1016.5
20260901182105 99 188 7.0 16.0 0.00 0.00 0.00 34 1016.6
20260901181605 99 129 8.0 17.0 0.00 0.00 0.00 34 1016.6
20260901181105 99 205 12.0 17.0 0.00 0.00 0.00 34 1016.6
20260901180605 98 183 10.0 17.0 0.00 0.00 0.00 35 1016.7
20260901180105 98 151 10.0 21.0 0.00 0.00 0.00 35 1016.8
20260901175605 98 174 12.0 21.0 0.00 0.00 0.00 35 1016.8
20260901175104 98 164 9.0 17.0 0.00 0.00 0.00 35 1016.9
20260901174605 98 160 9.0 17.0 0.00 0.00 0.00 36 1016.9
20260901174105 98 166 7.0 17.0 0.00 0.00 0.00 35 1017.0
20260901173605 98 153 7.0 17.0 0.00 0.00 0.00 36 1017.0
20260901173105 98 159 7.0 16.0 0.00 0.00 0.00 37 1017.1
20260901172605 97 182 6.0 13.0 0.00 0.00 0.00 38 1017.2
20260901172105 97 220 7.0 15.0 0.00 0.00 0.00 38 1017.2
20260901171605 97 193 10.0 16.0 0.00 0.00 0.00 38 1017.3
20260901171105 97 233 7.0 17.0 0.00 0.00 0.00 38 1017.3
20260901170605 97 151 11.0 17.0 0.00 0.00 0.00 37 1017.3
20260901170105 96 190 5.0 16.0 0.00 0.00 0.00 39 1017.4
20260901165105 96 202 9.0 16.0 0.00 0.00 0.00 40 1017.5
20260901164605 96 215 10.0 16.0 0.00 0.00 0.00 40 1017.4
20260901164105 96 201 9.0 16.0 0.00 0.00 0.00 40 1017.5
20260901163604 96 215 11.0 16.0 0.00 0.00 0.00 39 1017.5
20260901163105 96 192 8.0 16.0 0.00 0.00 0.00 41 1017.5
20260901162104 95 196 11.0 17.0 0.00 0.00 0.00 41 1017.6
20260901160605 94 223 10.0 17.0 0.00 0.00 0.00 42 1017.6
20260901155605 94 201 9.0 16.0 0.00 0.00 0.00 44 1017.6
20260901155104 94 193 10.0 16.0 0.00 0.00 0.00 44 1017.6
20260901154605 93 228 10.0 16.0 0.00 0.00 0.00 44 1017.6
20260901153604 92 211 10.0 16.0 0.00 0.00 0.00 45 1017.6
20260901153105 92 220 10.0 17.0 0.00 0.00 0.00 45 1017.6
20260901152605 92 223 11.0 17.0 0.00 0.00 0.00 46 1017.6
20260901152105 92 201 12.0 15.0 0.00 0.00 0.00 46 1017.6
20260901151105 91 210 10.0 16.0 0.00 0.00 0.00 47 1017.6
20260901150605 90 212 12.0 16.0 0.00 0.00 0.00 47 1017.6
20260901150105 90 199 10.0 15.0 0.00 0.00 0.00 48 1017.6
20260901145605 89 199 11.0 15.0 0.00 0.00 0.00 48 1017.7
20260901144105 88 209 11.0 15.0 0.00 0.00 0.00 51 1017.8
20260901143605 87 192 9.0 15.0 0.00 0.00 0.00 53 1017.8
20260901143105 87 192 10.0 15.0 0.00 0.00 0.00 53 1017.9
20260901142104 86 190 9.0 15.0 0.00 0.00 0.00 54 1017.8
20260901141605 86 200 10.0 15.0 0.00 0.00 0.00 54 1017.9
20260901141105 85 195 8.0 13.0 0.00 0.00 0.00 55 1017.9
20260901140605 85 194 9.0 13.0 0.00 0.00 0.00 56 1018.0
20260901135605 84 192 9.0 14.0 0.00 0.00 0.00 57 1018.0
20260901135105 83 192 9.0 14.0 0.00 0.00 0.00 58 1018.0
20260901134604 83 190 10.0 14.0 0.00 0.00 0.00 58 1017.9
20260901134105 83 191 9.0 13.0 0.00 0.00 0.00 59 1017.9
20260901133604 82 186 9.0 13.0 0.00 0.00 0.00 60 1017.8
20260901133104 82 190 9.0 13.0 0.00 0.00 0.00 60 1017.9
20260901132105 81 189 8.0 12.0 0.00 0.00 0.00 61 1017.8
20260901131605 81 194 7.0 12.0 0.00 0.00 0.00 61 1017.7
20260901131105 81 187 8.0 10.0 0.00 0.00 0.00 62 1017.6
20260901130605 80 187 7.0 10.0 0.00 0.00 0.00 62 1017.6
20260901130104 80 182 7.0 12.0 0.00 0.00 0.00 63 1017.5
20260901125105 79 182 6.0 10.0 0.00 0.00 0.00 65 1017.5
20260901124605 79 190 6.0 10.0 0.00 0.00 0.00 65 1017.4
20260901123605 79 188 7.0 10.0 0.00 0.00 0.00 65 1017.3
20260901123105 79 194 6.0 10.0 0.00 0.00 0.00 64 1017.2
20260901122605 79 196 6.0 12.0 0.00 0.00 0.00 63 1017.2
20260901122105 80 185 7.0 12.0 0.00 0.00 0.00 62 1017.2
20260901120605 80 180 7.0 15.0 0.00 0.00 0.00 61 1017.0
20260901120105 80 175 7.0 14.0 0.00 0.00 0.00 61 1016.8
20260901114604 80 176 8.0 12.0 0.00 0.00 0.00 60 1016.7
20260901113605 80 172 7.0 14.0 0.00 0.00 0.00 60 1016.7
20260901113105 80 163 9.0 14.0 0.00 0.00 0.00 60 1016.6
20260901112605 80 171 8.0 12.0 0.00 0.00 0.00 59 1016.7
20260901112104 80 168 9.0 13.0 0.00 0.00 0.00 59 1016.7
20260901111605 80 179 9.0 15.0 0.00 0.00 0.00 59 1016.7
20260901111105 80 172 11.0 15.0 0.00 0.00 0.00 58 1016.7
20260901110605 80 177 10.0 15.0 0.00 0.00 0.00 58 1016.7
20260901110105 80 169 9.0 15.0 0.00 0.00 0.00 58 1016.7
20260901105605 80 180 9.0 16.0 0.00 0.00 0.00 58 1016.7
20260901105104 81 173 10.0 16.0 0.00 0.00 0.00 57 1016.6
20260901104605 81 178 9.0 16.0 0.00 0.00 0.00 57 1016.6
20260901103105 81 163 10.0 15.0 0.00 0.00 0.00 56 1016.5
20260901102605 81 158 10.0 14.0 0.00 0.00 0.00 56 1016.5
20260901101605 81 167 8.0 14.0 0.00 0.00 0.00 57 1016.5
20260901101105 81 163 9.0 14.0 0.00 0.00 0.00 57 1016.5
20260901100104 81 172 8.0 13.0 0.00 0.00 0.00 56 1016.4
20260901095605 81 171 7.0 12.0 0.00 0.00 0.00 56 1016.5
20260901095105 81 169 7.0 12.0 0.00 0.00 0.00 56 1016.5
20260901094606 81 167 7.0 12.0 0.00 0.00 0.00 56 1016.5
20260901094105 81 170 8.0 12.0 0.00 0.00 0.00 56 1016.5
20260901093605 81 172 7.0 12.0 0.00 0.00 0.00 55 1016.5
20260901093104 81 161 8.0 12.0 0.00 0.00 0.00 55 1016.4
20260901092105 81 164 9.0 13.0 0.00 0.00 0.00 55 1016.4
20260901091105 81 158 9.0 12.0 0.00 0.00 0.00 55 1016.3
20260901085104 81 169 8.0 12.0 0.00 0.00 0.00 54 1016.2
20260901084105 81 163 7.0 12.0 0.00 0.00 0.00 54 1016.1
20260901083605 82 169 6.0 12.0 0.00 0.00 0.00 54 1016.2
20260901083105 82 169 6.0 12.0 0.00 0.00 0.00 54 1016.2
20260901082605 82 172 6.0 12.0 0.00 0.00 0.00 54 1016.2
20260901081604 82 176 6.0 9.0 0.00 0.00 0.00 53 1016.1
20260901081105 82 175 6.0 9.0 0.00 0.00 0.00 53 1016.1
20260901080605 82 171 6.0 9.0 0.00 0.00 0.00 54 1016.0
20260901075605 82 175 5.0 10.0 0.00 0.00 0.00 54 1016.0
20260901075105 82 182 6.0 12.0 0.00 0.00 0.00 53 1016.0
20260901074605 82 181 6.0 12.0 0.00 0.00 0.00 53 1016.1
20260901073604 82 180 6.0 10.0 0.00 0.00 0.00 53 1016.0
20260901073105 83 181 6.0 9.0 0.00 0.00 0.00 52 1016.1
20260901072605 83 178 6.0 12.0 0.00 0.00 0.00 52 1016.1
20260901072105 83 178 7.0 12.0 0.00 0.00 0.00 51 1016.1
20260901071605 83 164 6.0 12.0 0.00 0.00 0.00 52 1016.0
20260901071104 83 175 6.0 10.0 0.00 0.00 0.00 52 1016.1
20260901070605 83 184 6.0 10.0 0.00 0.00 0.00 52 1016.1
20260901065605 83 173 5.0 9.0 0.00 0.00 0.00 51 1016.1
20260901065105 83 160 6.0 8.0 0.00 0.00 0.00 51 1016.1
20260901064604 83 178 6.0 8.0 0.00 0.00 0.00 51 1016.2
20260901063604 84 169 6.0 10.0 0.00 0.00 0.00 50 1016.1
20260901062105 84 167 6.0 10.0 0.00 0.00 0.00 50 1016.1
20260901061605 84 177 6.0 10.0 0.00 0.00 0.00 50 1016.2
20260901060604 84 177 6.0 10.0 0.00 0.00 0.00 50 1016.1
20260901060105 85 182 5.0 10.0 0.00 0.00 0.00 50 1016.2
20260901055605 85 174 6.0 10.0 0.00 0.00 0.00 49 1016.1
20260901055104 85 168 6.0 10.0 0.00 0.00 0.00 49 1016.1
20260901054605 85 172 6.0 9.0 0.00 0.00 0.00 49 1016.0
20260901054104 85 190 5.0 9.0 0.00 0.00 0.00 48 1016.1
20260901053604 85 164 6.0 9.0 0.00 0.00 0.00 48 1016.0
20260901053105 85 163 5.0 9.0 0.00 0.00 0.00 48 1016.0
20260901052605 85 152 4.0 6.0 0.00 0.00 0.00 48 1016.1
20260901052104 85 159 4.0 7.0 0.00 0.00 0.00 48 1016.1
20260901051604 85 160 5.0 9.0 0.00 0.00 0.00 48 1016.0
20260901051104 85 159 5.0 9.0 0.00 0.00 0.00 48 1015.9
20260901050604 85 167 5.0 9.0 0.00 0.00 0.00 48 1016.0
20260901050105 85 161 5.0 6.0 0.00 0.00 0.00 48 1015.9
20260901044604 86 166 5.0 9.0 0.00 0.00 0.00 46 1015.8
20260901044105 87 175 5.0 9.0 0.00 0.00 0.00 46 1015.8
20260901043604 87 162 5.0 9.0 0.00 0.00 0.00 45 1015.7
20260901043104 87 154 6.0 12.0 0.00 0.00 0.00 45 1015.7
20260901042605 87 165 7.0 12.0 0.00 0.00 0.00 45 1015.7
20260901042104 88 161 6.0 12.0 0.00 0.00 0.00 45 1015.7
20260901041605 88 164 7.0 12.0 0.00 0.00 0.00 44 1015.6
20260901041104 88 161 6.0 13.0 0.00 0.00 0.00 44 1015.6
20260901040104 89 164 7.0 12.0 0.00 0.00 0.00 43 1015.7
20260901035605 89 165 9.0 12.0 0.00 0.00 0.00 43 1015.6
20260901035104 89 166 7.0 16.0 0.00 0.00 0.00 42 1015.6
20260901034605 89 161 9.0 16.0 0.00 0.00 0.00 42 1015.5
20260901033605 90 165 10.0 16.0 0.00 0.00 0.00 42 1015.5
20260901033104 90 160 9.0 15.0 0.00 0.00 0.00 41 1015.5
20260901032605 90 159 10.0 15.0 0.00 0.00 0.00 41 1015.4
20260901032104 90 159 10.0 17.0 0.00 0.00 0.00 41 1015.4
20260901031605 91 156 11.0 17.0 0.00 0.00 0.00 40 1015.4
20260901030604 91 165 8.0 14.0 0.00 0.00 0.00 40 1015.3
20260901025604 91 161 8.0 16.0 0.00 0.00 0.00 40 1015.1
20260901024605 91 145 9.0 13.0 0.00 0.00 0.00 39 1015.0
20260901023604 91 157 6.0 12.0 0.00 0.00 0.00 39 1014.9
20260901023104 92 153 8.0 12.0 0.00 0.00 0.00 38 1014.8
20260901022104 92 162 7.0 12.0 0.00 0.00 0.00 38 1014.6
20260901021605 92 147 7.0 12.0 0.00 0.00 0.00 38 1014.6
20260901021104 92 152 8.0 12.0 0.00 0.00 0.00 37 1014.5
20260901020604 92 145 8.0 12.0 0.00 0.00 0.00 37 1014.4
20260901020104 92 148 7.0 13.0 0.00 0.00 0.00 37 1014.3
20260901015605 93 146 7.0 13.0 0.00 0.00 0.00 37 1014.3
20260901015104 93 159 8.0 12.0 0.00 0.00 0.00 37 1014.2
20260901014104 93 144 9.0 14.0 0.00 0.00 0.00 36 1014.1
20260901013605 93 162 8.0 13.0 0.00 0.00 0.00 36 1014.1
20260901013104 93 155 8.0 12.0 0.00 0.00 0.00 35 1014.0
20260901012605 94 149 7.0 12.0 0.00 0.00 0.00 35 1013.9
20260901012105 94 160 7.0 13.0 0.00 0.00 0.00 35 1013.9
20260901011604 94 143 9.0 13.0 0.00 0.00 0.00 35 1013.9
20260901011104 94 145 7.0 13.0 0.00 0.00 0.00 35 1013.8
20260901010604 95 150 9.0 13.0 0.00 0.00 0.00 34 1013.8
20260901010105 95 156 7.0 13.0 0.00 0.00 0.00 34 1013.7
20260901005605 95 152 8.0 13.0 0.00 0.00 0.00 34 1013.7
20260901005104 95 153 9.0 13.0 0.00 0.00 0.00 34 1013.6
20260901004105 96 155 10.0 13.0 0.00 0.00 0.00 34 1013.6
20260901003605 96 153 9.0 13.0 0.00 0.00 0.00 34 1013.6